GFSWCAN_sfc_thetae_117.txt.gz
Theta_e
304 304 304 305 305 306 306 307 307 308 309 310 311 311 312 312 313 312 308 306 304 298 302 302 302 299 299 300 296 298 295 296 296 295 294 294 293 294 294 296 292 291 290 289 291 289 287 301 297 293 301 302 302 302
303 304 304 304 304 305 306 306 307 307 308 309 310 311 311 311 312 311 304 306 308 302 301 302 301 302 304 304 301 298 299 298 300 297 298 298 294 296 295 290 297 292 297 295 295 296 302 302 302 303 304 304 303 303
303 303 303 304 304 305 305 305 306 307 307 308 309 309 310 311 311 311 304 304 304 298 298 299 299 301 305 305 308 298 301 303 302 305 301 298 295 297 293 294 296 297 301 297 296 300 300 302 303 304 304 304 306 306
302 303 303 303 304 304 305 305 306 306 306 307 308 309 310 310 309 308 304 305 305 301 294 296 305 299 304 305 304 305 305 302 304 303 300 298 296 300 296 298 297 299 298 296 297 300 301 302 303 304 304 305 305 306
302 302 303 303 303 304 304 304 305 306 306 307 308 309 309 309 310 310 309 306 308 301 291 294 302 302 302 302 300 303 302 301 300 298 298 296 300 298 299 298 296 299 298 296 296 302 302 303 305 306 303 304 305 305
301 302 302 302 303 303 304 304 305 305 306 307 308 308 309 308 308 305 299 306 307 304 295 289 296 298 299 300 299 300 303 302 301 299 297 299 300 298 296 293 298 301 302 303 301 304 304 305 305 304 303 304 304 304
301 301 302 302 303 303 303 304 304 305 306 306 307 308 308 308 305 299 297 303 309 304 293 286 288 295 299 299 298 298 301 300 300 298 297 297 297 296 297 292 297 300 301 302 302 302 300 301 301 302 302 303 304 303
301 301 301 302 302 303 303 303 304 304 305 305 306 307 307 306 304 300 306 305 307 298 295 286 286 290 297 293 292 299 296 298 298 297 298 296 296 296 292 296 298 299 299 299 300 302 301 303 303 303 303 302 301 300
300 301 301 302 302 303 303 304 304 304 305 305 305 305 302 300 297 301 307 303 301 297 286 286 286 286 295 295 295 296 297 291 298 293 294 295 293 291 294 297 298 298 297 298 299 300 300 300 300 301 302 301 299 300
300 301 301 301 302 302 303 304 304 304 305 304 301 295 292 298 305 305 299 293 291 290 291 289 296 288 294 292 291 292 295 292 290 293 297 293 292 297 298 298 298 299 299 299 296 296 297 298 298 299 300 301 301 300
300 300 300 301 301 303 303 303 304 304 303 298 291 292 300 304 301 296 286 286 285 283 286 291 293 290 297 291 290 294 290 291 286 292 290 290 290 295 298 298 299 300 300 300 300 300 300 300 300 300 300 301 301 302
300 300 301 300 301 302 303 303 304 302 299 295 298 300 299 291 286 285 284 286 285 286 289 291 292 294 294 297 291 291 289 290 285 293 289 286 293 297 297 297 298 300 301 300 301 300 300 300 300 300 300 300 300 301
302 303 302 301 301 302 303 303 304 303 301 299 294 290 287 285 281 282 280 284 286 288 290 293 289 290 293 295 292 292 287 286 292 287 285 289 297 298 298 298 299 300 300 300 299 301 301 301 301 300 299 300 301 301
301 303 304 302 302 302 303 303 303 302 296 287 285 282 283 282 284 286 287 287 292 293 292 294 291 291 293 291 291 287 291 289 285 283 287 294 296 297 299 300 300 299 301 301 300 300 300 299 299 299 299 300 299 299
300 301 301 301 302 302 303 303 303 300 292 285 286 282 283 289 290 290 292 290 292 295 293 292 291 293 292 288 291 287 283 283 286 287 294 298 299 300 299 299 300 300 298 298 299 298 298 298 298 298 299 299 299 299
301 301 300 302 303 303 303 302 300 296 292 286 285 284 289 287 287 288 289 290 294 294 295 293 288 286 286 288 285 284 285 283 289 294 298 300 300 300 299 299 299 300 299 298 297 297 297 297 297 298 298 299 299 299
300 299 301 303 303 302 301 296 293 287 285 285 284 290 290 290 289 290 291 292 295 292 287 288 284 285 290 286 285 290 288 293 297 297 298 300 300 299 300 299 298 299 298 298 297 297 297 298 298 297 296 298 299 299
299 300 301 303 303 299 294 291 287 286 284 286 285 289 290 291 290 291 293 294 292 291 292 289 292 287 285 284 287 293 295 298 299 298 300 299 300 299 298 298 297 297 297 297 297 297 297 296 296 297 297 297 297 297
299 299 302 303 297 290 286 285 286 283 285 287 290 292 291 291 292 294 295 293 294 295 293 291 288 288 289 292 293 296 297 297 297 299 299 300 299 297 297 297 297 297 297 297 297 296 297 298 299 299 298 298 297 297
299 300 301 300 298 289 285 285 288 286 284 288 290 289 290 290 292 293 293 291 289 289 286 285 290 294 295 295 296 298 298 299 299 298 297 297 298 297 297 297 297 297 297 297 297 297 297 297 298 298 298 298 296 295
298 297 297 296 291 290 287 284 283 287 288 287 290 289 289 291 290 290 289 290 286 286 287 293 295 295 296 297 297 296 297 298 298 299 300 299 298 298 297 297 297 297 295 295 294 295 296 296 296 298 297 297 297 297
296 296 294 293 285 285 286 289 287 289 287 287 287 289 287 287 288 290 290 286 288 291 293 294 295 296 296 295 296 295 296 296 297 296 296 297 295 295 295 296 296 295 296 296 296 295 296 296 297 297 297 297 297 296
295 292 287 286 285 285 283 289 285 286 283 284 287 286 286 287 290 294 288 290 291 295 296 296 296 297 295 295 294 294 295 295 295 296 296 296 297 297 296 296 297 296 295 295 297 296 295 295 296 296 296 295 294 293
293 286 285 284 285 280 284 283 285 285 285 284 284 283 285 287 291 288 286 289 292 295 295 296 296 295 296 295 295 295 295 296 295 295 295 295 294 294 295 295 297 297 296 295 295 295 294 294 295 294 294 294 293 292
284 283 284 281 284 281 281 281 281 282 282 284 283 284 285 287 285 284 284 288 291 293 294 295 296 296 294 294 296 296 296 296 295 294 294 296 295 293 293 294 294 295 296 294 294 294 294 293 294 294 293 293 292 292
281 283 283 282 282 281 281 279 280 281 283 283 284 286 286 285 283 283 287 290 292 294 294 294 295 294 294 296 295 296 295 296 296 295 294 295 294 293 292 291 290 291 296 296 295 294 293 294 293 293 293 293 293 292
279 280 284 287 286 285 283 284 286 284 282 282 284 283 284 281 281 287 292 295 295 297 298 298 298 296 296 296 297 298 297 297 297 297 297 296 296 297 296 293 292 294 295 296 296 295 294 293 293 293 293 293 293 293
284 284 280 283 283 286 282 283 283 283 284 287 286 283 282 283 285 292 294 296 297 298 298 300 300 300 299 299 298 296 295 294 294 294 294 294 295 296 297 298 297 294 296 296 297 296 295 294 294 293 293 292 292 294
282 285 285 281 283 284 284 284 285 288 290 288 285 284 286 290 291 292 293 294 294 295 295 296 297 299 299 300 300 298 295 295 293 290 291 290 290 291 295 295 293 294 295 295 295 296 296 295 295 294 294 293 293 293
283 287 284 283 280 281 285 288 288 289 291 291 290 288 288 289 291 291 290 291 292 293 296 297 298 297 297 297 296 295 296 297 299 297 294 293 294 295 294 294 293 294 295 294 294 295 296 295 295 294 292 291 291 290
287 285 283 284 283 285 286 288 288 288 287 287 288 287 287 288 289 289 289 291 293 295 296 296 296 298 297 296 295 293 293 297 299 300 300 299 296 295 295 294 294 294 294 294 294 293 293 292 292 291 290 290 290 290
285 283 283 281 282 284 285 285 286 286 285 285 286 285 286 285 285 289 290 290 291 292 294 296 295 296 299 299 299 299 296 297 296 297 296 296 296 296 295 294 294 294 294 294 293 293 292 291 291 291 290 290 290 290
283 283 283 282 282 282 284 284 283 283 283 284 284 285 285 286 285 290 290 291 293 294 295 296 297 299 299 299 299 299 298 299 297 296 296 296 296 295 295 294 294 294 293 293 293 292 291 291 290 290 290 290 290 290

GFSWCAN_sfc_thetae_120.txt.gz
Theta_e
303 304 304 304 305 305 305 305 306 306 307 307 308 309 310 311 311 309 306 309 305 299 302 305 305 300 297 296 293 295 294 294 293 292 291 291 291 292 292 292 288 287 286 284 286 284 283 297 294 290 296 296 298 298
303 303 304 304 304 304 305 305 305 306 306 307 308 309 310 310 311 310 302 308 310 303 302 306 307 309 300 297 297 297 296 295 296 294 295 294 291 293 292 287 295 288 294 290 291 291 298 298 298 299 302 298 298 299
302 303 303 303 304 304 304 305 305 305 306 306 307 308 309 309 310 309 305 304 304 299 300 299 300 307 308 303 303 295 298 300 299 302 298 296 292 294 288 291 292 294 298 293 293 296 298 299 299 300 300 301 302 301
302 302 303 303 303 303 304 304 305 305 305 306 307 307 307 308 310 309 304 305 304 301 295 296 306 304 309 304 302 300 300 302 302 301 298 295 293 297 292 293 294 295 296 293 293 296 298 300 300 300 301 301 301 303
301 302 302 302 303 303 303 304 304 305 305 306 306 307 307 308 309 308 307 306 307 301 293 295 302 303 304 303 300 300 300 300 298 296 295 294 297 294 294 294 292 296 294 292 291 298 297 298 301 302 301 301 302 301
301 301 302 302 302 303 303 303 304 304 305 305 306 306 306 307 309 304 297 306 307 305 294 289 296 301 300 300 298 298 299 300 299 297 295 297 298 296 289 288 295 298 299 299 297 300 300 300 302 303 301 302 302 302
300 301 301 301 302 302 302 303 303 304 304 305 305 306 305 307 304 298 296 303 308 305 294 287 289 295 301 298 298 297 299 298 298 296 294 295 294 296 291 289 295 297 299 299 300 297 294 298 297 300 301 302 304 302
300 300 301 301 302 302 302 303 303 303 304 305 305 305 305 306 304 298 302 305 308 299 296 285 286 289 298 291 291 297 294 295 296 295 295 292 292 292 287 292 296 296 297 298 299 300 297 297 298 298 299 299 298 298
299 300 300 301 301 302 302 302 303 303 304 304 305 305 303 301 297 298 306 304 302 296 286 285 285 284 296 292 294 294 295 290 295 291 291 293 290 287 291 292 294 297 296 296 296 297 296 296 297 296 298 297 297 297
299 299 300 301 301 302 302 302 303 303 303 303 297 292 291 297 306 304 298 289 291 291 290 287 293 286 293 292 290 290 293 289 287 289 293 288 288 294 295 296 297 298 298 298 295 294 295 295 295 296 296 298 299 298
299 299 300 300 301 301 302 302 303 303 303 296 289 287 299 305 299 294 285 285 285 283 286 289 293 288 296 289 289 292 288 290 285 289 287 286 287 292 296 296 298 299 299 298 299 298 298 297 296 296 295 296 297 297
299 299 300 300 301 301 301 302 303 301 298 295 295 299 297 292 287 285 284 284 285 285 288 290 291 293 293 296 289 289 287 288 283 292 287 283 291 296 297 297 298 299 299 299 298 297 297 297 296 296 295 295 296 297
298 299 299 300 300 301 301 302 303 302 300 298 291 288 285 285 282 282 279 282 284 288 290 291 288 291 293 294 290 288 285 284 291 284 283 286 294 295 296 298 298 300 299 299 298 298 298 296 296 296 295 296 297 297
301 301 302 302 301 301 301 302 303 300 294 287 284 280 282 280 283 285 286 288 290 292 291 293 289 290 291 289 289 285 288 288 283 281 282 289 292 296 296 297 296 294 295 296 296 296 296 295 295 296 296 296 296 296
300 302 303 303 301 302 302 302 302 299 291 285 285 280 281 288 290 291 291 290 292 293 293 291 290 291 289 287 289 286 283 282 283 283 290 294 295 295 295 295 294 294 294 295 295 295 296 296 295 295 296 296 296 296
301 301 300 302 302 302 302 302 299 296 291 286 285 284 288 287 287 289 289 289 294 293 294 293 287 286 285 285 284 283 281 281 285 290 294 296 295 295 295 295 295 296 295 295 295 295 295 295 295 295 295 295 295 295
301 298 301 302 302 302 302 294 289 285 286 284 283 288 289 288 288 289 290 292 295 291 286 286 284 284 288 285 283 286 284 290 292 294 295 295 295 295 295 295 295 295 295 294 294 294 294 295 295 294 292 293 295 295
298 301 300 302 301 298 293 291 286 285 283 285 284 288 289 291 291 291 292 294 291 288 286 286 291 286 284 282 283 289 292 294 295 295 295 295 295 295 296 294 294 294 293 294 293 293 293 293 293 292 293 294 294 293
299 299 299 302 297 291 286 285 285 283 285 286 288 291 290 290 292 293 294 294 293 293 289 286 285 285 286 290 291 292 293 293 293 294 295 296 294 294 293 293 293 293 292 293 293 293 293 294 294 294 294 294 292 292
300 300 301 300 298 289 285 284 286 286 283 286 289 289 289 289 291 292 293 293 290 288 285 284 287 291 292 292 293 294 295 296 295 293 293 293 293 293 292 293 292 293 293 293 294 296 294 294 295 295 295 294 292 291
297 293 299 295 290 290 286 284 284 287 288 287 289 289 288 290 289 289 289 290 286 285 286 289 292 292 294 294 295 295 295 294 295 296 295 292 292 293 293 293 294 293 293 293 292 293 295 293 294 295 295 294 293 293
294 296 291 293 285 285 285 289 287 289 287 288 287 288 287 286 287 288 291 286 285 288 290 291 294 295 294 294 294 294 294 294 294 293 296 296 291 292 292 293 293 291 291 291 293 293 293 294 295 295 294 294 294 293
293 291 288 286 285 284 282 288 285 286 283 284 287 283 285 286 289 292 286 287 289 293 293 294 295 296 295 295 293 293 293 292 292 292 293 293 293 293 293 292 294 293 292 291 292 294 293 295 295 294 294 293 292 291
294 286 285 284 284 281 284 284 286 285 285 284 284 280 283 285 290 286 284 287 291 294 293 293 294 293 293 293 292 293 293 293 292 292 292 292 291 291 292 292 293 294 293 293 293 292 292 293 295 293 292 291 290 290
283 283 284 281 284 281 280 280 281 281 280 282 280 280 284 287 283 283 283 285 290 291 293 294 294 294 292 293 294 294 294 294 292 290 291 292 292 291 291 291 292 292 294 292 291 291 291 292 292 292 291 290 290 290
278 282 281 282 281 280 280 278 279 280 282 280 282 285 285 283 282 281 284 287 290 292 293 293 293 293 293 294 292 293 293 295 294 292 291 293 292 291 290 289 288 288 292 293 292 291 290 291 291 291 290 291 293 290
277 280 283 287 285 284 283 284 284 283 281 279 282 283 283 278 279 284 289 291 292 293 296 296 296 294 294 293 294 295 295 295 294 293 293 293 294 295 293 290 289 291 293 294 293 292 291 291 291 291 290 291 291 291
283 284 279 282 282 284 281 282 282 281 282 285 284 281 280 281 282 289 291 294 295 296 296 297 297 297 296 296 297 295 294 293 293 293 292 292 293 294 294 294 293 295 294 294 294 293 293 292 292 291 291 290 290 291
282 284 284 281 283 283 283 282 282 285 287 286 284 283 284 288 291 290 291 292 293 293 292 293 294 297 296 297 297 295 293 292 291 289 288 287 288 289 293 292 293 294 294 294 296 295 293 293 293 292 291 291 291 290
283 286 282 282 280 280 284 287 286 287 288 288 287 286 285 286 288 288 289 289 290 291 293 294 295 295 294 294 293 292 294 295 296 294 291 290 291 292 292 292 292 292 294 294 293 294 297 294 294 292 290 289 288 288
286 285 283 283 280 284 285 286 286 286 285 285 286 284 284 285 287 289 288 289 291 292 293 293 294 295 294 294 293 291 291 295 296 297 297 296 294 293 292 292 293 293 293 293 292 292 292 291 290 289 288 287 287 287
284 283 282 279 281 283 284 283 284 284 283 283 283 284 283 283 283 287 288 288 289 289 293 293 293 293 296 296 296 297 296 296 296 296 296 295 294 294 293 293 293 293 293 292 292 291 291 290 289 288 287 286 286 286
283 283 282 281 279 281 283 282 281 281 281 281 282 283 283 283 283 287 288 290 290 290 291 293 295 296 296 296 296 297 296 296 296 296 296 296 296 295 293 293 293 293 292 291 291 291 290 289 288 287 287 287 287 286

GFSWCAN_sfc_thetae_123.txt.gz
Theta_e
303 303 304 304 304 304 305 305 305 305 306 306 307 307 308 309 310 306 302 307 301 296 297 300 303 300 295 295 291 292 292 292 290 288 287 286 285 288 286 287 284 283 280 280 282 280 281 294 292 289 292 293 295 295
302 302 303 303 304 304 304 304 305 305 305 306 306 307 308 308 309 308 298 306 307 299 299 303 304 308 302 297 296 293 294 292 293 290 289 289 287 287 288 283 289 285 288 284 286 287 294 295 293 295 297 296 295 296
301 302 302 303 303 303 304 304 304 304 305 305 306 306 307 308 309 307 300 304 304 299 298 298 300 307 307 301 301 293 292 296 295 296 293 292 287 289 284 286 288 289 292 290 289 293 294 295 295 296 299 297 298 298
301 301 302 302 302 303 303 303 304 304 304 305 305 306 307 307 308 308 302 303 302 299 292 296 306 304 309 304 301 299 295 296 298 297 294 289 289 292 287 289 289 290 292 290 289 292 294 296 296 297 298 299 299 300
300 301 301 302 302 302 303 303 303 304 304 304 305 306 307 307 307 305 305 305 305 298 291 295 301 305 308 308 304 302 297 295 294 293 292 289 291 290 288 289 287 291 290 291 290 294 295 296 300 299 298 298 299 300
300 300 301 301 302 302 302 303 303 303 304 304 305 305 305 306 307 302 296 304 306 305 294 288 297 298 305 307 305 302 298 296 295 291 291 291 294 291 285 284 290 293 294 296 294 296 298 298 300 300 299 299 300 299
300 300 300 301 301 302 302 302 302 303 304 304 304 305 305 306 303 297 294 302 306 305 294 287 289 295 301 303 302 298 297 296 295 292 289 290 291 292 286 286 291 294 297 296 296 296 293 296 297 299 300 301 303 301
299 300 300 300 301 301 302 302 302 303 303 304 304 305 304 304 303 298 300 304 307 300 297 285 285 290 297 292 291 297 294 295 294 291 290 288 289 287 285 291 293 295 296 296 297 296 295 295 296 298 298 299 298 298
299 299 300 300 300 301 301 302 302 303 303 303 304 304 302 299 294 297 305 304 301 297 286 285 284 283 295 292 293 293 295 288 294 290 287 288 287 285 288 290 293 293 294 297 295 295 294 295 295 294 295 295 296 296
299 299 299 300 300 300 301 301 302 302 303 302 298 292 290 296 305 302 295 289 289 290 289 286 291 286 292 290 287 289 291 288 284 286 290 286 288 292 291 292 294 295 296 293 292 291 291 291 293 293 293 297 297 297
298 299 299 299 299 300 301 301 302 302 301 295 290 288 295 305 297 292 284 284 284 282 285 289 289 288 294 289 287 291 287 288 283 286 284 281 286 291 291 291 293 293 295 297 296 297 295 295 295 295 292 294 296 296
298 299 299 299 299 299 300 301 301 299 295 294 294 296 292 290 286 284 283 284 283 283 286 288 289 291 293 295 288 289 286 287 282 287 282 280 289 291 293 294 295 295 296 295 295 296 297 296 296 295 292 293 293 294
298 298 298 299 299 300 300 301 301 301 300 296 291 286 284 284 280 280 277 280 282 287 288 290 288 291 292 293 289 287 284 284 289 281 281 283 289 294 296 296 295 297 297 297 297 297 295 294 294 293 292 293 293 293
298 298 298 298 298 298 299 301 301 300 294 287 284 279 280 278 276 277 280 283 288 289 291 291 289 289 290 288 288 284 287 286 282 278 280 284 289 292 294 297 297 296 296 296 296 296 296 295 293 293 293 293 294 294
298 301 301 301 301 300 300 301 301 297 290 284 283 277 279 284 283 288 286 286 288 292 293 291 289 290 287 285 286 285 283 280 282 281 284 289 292 294 295 291 291 291 291 292 292 292 292 292 292 292 293 294 294 295
301 301 299 302 302 302 302 301 298 295 288 285 284 281 284 284 278 286 287 288 290 291 294 291 287 285 284 285 283 282 279 279 282 286 290 291 291 291 292 293 292 292 291 291 291 292 292 292 292 293 293 294 294 294
300 294 302 303 302 302 301 291 290 286 285 284 281 285 283 283 283 283 286 288 291 289 286 286 283 283 286 283 282 283 280 284 288 290 291 292 292 292 292 292 292 292 292 291 291 292 292 293 293 292 291 292 293 294
297 299 302 302 300 297 293 291 285 284 282 284 279 283 285 285 285 287 291 289 288 288 286 285 288 285 283 281 280 284 287 290 292 291 292 293 293 292 292 291 292 292 291 291 291 291 291 291 291 290 292 293 292 292
298 298 301 301 296 290 285 285 285 282 282 285 284 286 286 285 287 289 289 289 289 289 288 286 283 283 282 284 286 288 290 291 291 292 293 293 291 291 291 291 291 290 290 290 290 291 291 291 291 292 292 293 291 290
298 299 300 300 297 288 284 283 286 284 282 282 285 285 285 286 288 287 289 289 286 286 283 281 284 288 290 290 289 290 292 293 292 290 290 289 289 289 290 290 289 289 290 290 291 294 292 291 292 293 292 292 291 290
293 293 300 295 290 287 283 283 283 281 284 283 285 285 284 286 286 285 289 289 285 282 282 287 288 291 295 294 292 291 291 292 292 293 291 288 288 289 289 289 290 291 291 291 291 292 292 291 292 293 293 291 291 291
290 294 291 292 286 285 284 286 282 287 285 285 285 284 281 279 281 284 287 286 284 284 286 288 290 292 293 294 293 291 291 292 291 292 294 293 288 288 288 290 291 289 290 291 292 291 291 292 293 293 291 291 292 292
293 290 286 285 284 283 281 288 282 285 277 282 285 282 282 278 284 289 284 286 287 289 291 290 290 294 295 295 293 291 292 292 291 290 290 290 289 290 290 290 291 290 289 289 291 292 292 294 294 292 292 291 291 290
293 286 284 282 280 278 284 282 285 281 283 277 275 273 275 278 285 283 280 282 286 290 290 290 291 292 294 294 291 291 292 292 292 290 290 290 289 289 291 291 291 292 293 292 292 292 293 293 294 292 291 290 290 289
280 282 278 274 278 276 278 276 277 280 275 278 277 279 279 286 282 278 280 282 287 288 290 291 290 291 291 293 293 292 294 293 291 289 290 291 289 289 290 290 290 291 293 292 291 292 291 292 291 290 290 290 289 288
275 280 279 273 277 278 280 278 279 279 280 280 281 281 285 283 279 278 281 284 287 289 291 291 291 290 290 292 291 291 292 293 291 290 290 291 292 291 290 289 289 288 292 294 292 291 291 291 290 290 289 290 292 289
277 277 279 284 282 281 280 281 281 278 278 275 275 281 281 278 276 281 286 288 288 291 294 294 293 292 292 293 292 293 293 293 292 292 292 292 292 293 293 291 290 291 292 292 292 292 291 290 290 290 289 290 290 290
281 282 279 282 280 281 280 280 280 280 280 281 281 277 277 280 281 287 289 291 291 293 293 295 296 295 293 292 293 293 291 291 291 291 291 291 291 292 292 292 292 294 293 293 292 292 292 292 291 290 290 289 289 290
281 283 283 280 280 280 280 280 279 281 283 282 280 280 282 287 290 289 289 290 290 291 290 291 292 295 294 293 292 291 291 291 289 286 287 286 287 289 292 292 293 294 294 293 295 294 293 292 292 291 291 290 290 289
281 284 281 279 277 277 280 282 281 283 284 284 284 284 284 284 285 284 288 287 287 288 290 292 292 292 292 292 290 289 292 293 294 292 290 289 290 291 292 292 293 293 294 293 292 293 296 293 293 291 289 288 288 287
282 281 281 281 277 279 280 281 282 282 282 281 282 282 282 283 285 287 286 286 287 288 289 290 291 293 292 292 292 289 288 291 293 294 296 294 293 292 292 293 293 294 294 293 293 292 291 290 289 288 287 287 287 287
282 282 281 276 275 277 280 280 280 280 281 280 280 281 282 281 280 284 286 285 286 286 290 291 291 292 295 295 295 295 295 294 294 294 294 293 293 293 293 293 294 294 293 293 292 292 291 290 289 288 286 286 286 286
282 282 281 277 274 276 278 278 277 277 276 277 278 280 281 281 281 284 285 286 287 288 288 290 292 294 294 295 294 295 294 294 295 296 295 295 295 294 293 293 294 293 292 292 291 291 290 289 288 287 286 286 286 285

GFSWCAN_sfc_thetae_126.txt.gz
Theta_e
301 302 302 303 303 304 304 304 305 305 305 305 306 306 307 307 308 303 301 304 300 293 294 298 299 296 296 295 289 292 291 292 290 290 288 284 283 285 283 284 283 283 280 279 280 279 281 294 291 289 291 292 294 294
301 301 302 302 302 303 304 304 304 304 305 305 305 306 306 307 307 307 299 304 306 298 295 302 303 304 303 302 294 294 294 291 295 289 286 287 285 284 284 280 286 284 286 283 285 286 292 295 292 294 295 294 294 294
300 300 301 301 302 303 303 303 304 304 304 304 305 305 306 306 307 306 299 300 301 296 297 296 296 303 307 305 301 293 295 295 294 296 292 290 286 287 283 284 285 287 290 286 287 291 292 294 293 294 296 295 296 296
300 300 300 301 302 302 303 303 303 303 303 304 305 305 305 306 306 306 299 301 301 298 290 291 303 300 309 307 300 299 295 296 295 295 292 288 287 289 285 289 288 289 291 289 287 290 292 295 295 295 296 297 296 297
299 300 300 300 301 302 302 303 303 303 303 304 304 305 305 305 306 304 300 302 304 297 289 291 299 303 306 307 302 301 299 295 293 292 291 288 288 288 286 287 286 289 288 290 288 295 294 294 296 296 297 298 297 297
299 299 299 300 301 301 302 302 302 303 303 303 304 304 305 305 305 300 294 301 304 303 294 287 296 296 304 305 304 302 299 296 294 289 289 290 292 290 284 284 291 292 293 298 294 295 297 295 298 298 297 297 298 298
299 299 299 300 300 301 301 301 302 302 303 303 303 304 304 304 301 296 293 297 305 303 294 286 289 295 300 303 303 302 297 295 294 292 288 288 290 290 284 285 289 292 295 295 294 295 293 295 296 297 299 299 302 299
298 299 299 300 300 300 301 301 302 302 303 303 303 304 304 304 302 296 301 304 306 298 296 286 286 290 299 293 294 300 296 295 294 291 289 287 288 286 285 291 292 293 294 294 294 296 297 297 297 297 298 297 297 297
298 299 299 299 300 300 300 300 301 302 302 303 303 303 300 298 293 295 304 304 303 296 285 286 284 284 295 292 293 293 296 290 295 291 288 289 285 284 287 290 293 293 293 295 295 294 292 295 296 297 296 296 297 298
298 298 299 299 299 300 300 300 300 301 302 301 297 292 290 294 302 302 296 290 288 287 288 286 291 287 292 289 287 289 291 288 285 289 291 289 289 293 290 292 295 295 295 296 295 289 291 292 293 292 295 297 298 299
298 298 298 298 299 299 300 300 300 301 300 295 290 288 293 300 295 289 283 283 284 281 284 288 290 287 294 288 287 290 286 287 283 286 287 282 287 293 295 291 291 293 295 297 299 299 298 298 296 296 293 294 295 295
298 298 298 298 299 299 299 299 300 297 296 295 294 295 293 286 285 283 282 283 282 282 286 287 288 292 292 294 289 289 286 286 281 286 281 279 287 294 297 295 294 293 295 294 293 296 294 294 296 295 293 293 293 295
298 298 298 298 298 299 299 299 300 300 299 296 292 287 284 284 279 275 276 279 281 287 287 290 288 291 292 291 286 286 284 284 287 279 279 281 287 292 296 297 296 297 296 295 294 295 296 294 293 293 292 292 293 292
298 298 298 298 297 298 298 299 300 299 295 286 283 278 278 278 279 274 277 282 285 288 289 292 289 289 291 288 288 284 287 287 281 279 279 284 287 291 294 296 297 296 297 297 295 294 292 293 292 292 294 293 292 292
297 297 297 297 297 298 299 298 299 298 290 284 284 274 277 282 286 285 284 284 286 294 291 289 289 290 287 285 286 285 283 280 281 281 283 287 290 291 292 294 295 295 295 295 295 294 292 292 292 292 291 292 293 293
297 299 297 301 301 300 298 297 296 293 286 285 284 281 282 283 285 288 286 285 291 294 293 292 286 284 284 285 283 280 281 279 282 285 288 290 290 291 289 290 291 291 291 291 292 293 293 292 293 292 290 291 291 292
298 295 300 302 301 301 300 291 290 285 284 283 281 285 284 284 285 285 287 287 293 292 287 286 282 283 285 283 282 282 280 283 286 288 290 291 290 291 290 290 291 290 290 290 289 289 290 290 290 291 290 290 292 293
295 296 302 302 300 297 293 288 285 284 281 282 279 282 285 285 284 285 287 289 289 289 287 286 288 284 282 279 278 283 286 288 289 290 290 291 291 291 291 291 290 290 290 289 289 289 290 290 290 289 290 291 292 291
298 299 302 300 296 290 285 284 284 276 279 282 283 285 286 286 287 288 287 288 288 287 287 285 281 283 282 285 286 286 287 287 289 291 291 290 290 291 290 290 290 289 289 289 289 290 290 291 291 291 291 293 291 291
300 301 300 299 296 286 283 283 285 281 277 281 283 282 284 286 287 286 286 286 285 285 282 281 281 285 287 287 288 288 289 289 289 289 291 289 289 289 289 289 288 288 288 289 290 292 290 290 291 292 292 292 291 290
294 293 299 293 289 283 285 284 280 282 283 281 283 284 282 285 284 287 286 287 285 282 281 283 283 287 291 291 291 290 289 289 288 290 290 290 289 289 287 288 288 289 289 289 290 291 291 290 290 292 292 290 290 290
290 294 292 293 285 284 281 286 279 283 283 284 284 283 281 279 280 283 286 285 285 282 282 284 286 287 288 289 291 291 290 289 289 290 293 292 288 287 287 288 290 289 289 289 291 290 290 291 291 291 291 290 291 291
291 290 286 285 282 280 281 287 283 283 280 276 283 275 273 276 282 286 280 284 284 285 287 287 288 288 289 291 293 292 290 289 288 288 290 290 290 290 290 290 291 290 289 289 291 291 291 293 293 291 291 290 290 290
290 285 283 282 280 279 284 282 283 281 284 281 280 278 275 276 286 284 282 281 284 286 286 287 289 287 288 290 291 292 291 290 289 289 290 289 288 289 290 290 290 291 291 291 292 292 293 292 293 291 290 290 289 288
282 281 279 277 276 273 274 279 280 281 278 277 278 271 276 284 281 281 279 280 283 286 288 289 288 288 287 290 292 294 295 292 289 289 289 290 289 289 289 289 290 290 293 291 291 292 291 292 291 290 290 289 288 287
272 280 274 272 276 276 276 274 276 278 278 274 277 278 282 281 279 276 279 281 283 286 288 288 289 288 288 292 293 294 294 292 292 290 291 291 291 290 289 288 288 288 291 293 293 292 291 291 290 290 289 290 291 288
271 278 281 282 280 280 279 281 282 278 278 274 274 280 280 276 276 281 285 286 286 287 290 292 292 290 290 291 292 294 294 293 292 293 293 291 292 293 293 291 290 291 291 293 294 293 292 291 290 290 289 290 290 289
280 282 278 281 280 280 277 279 279 279 279 280 279 278 275 277 279 286 289 293 292 292 292 293 293 293 292 292 294 292 291 290 290 291 291 291 291 292 292 292 292 293 292 293 293 293 293 292 291 290 289 289 288 289
281 283 283 279 281 280 278 279 279 280 282 282 280 279 280 283 286 289 290 290 290 289 289 290 290 292 291 292 291 291 291 290 289 287 287 287 288 289 291 291 292 293 293 293 295 294 293 292 292 291 291 290 289 289
280 284 281 280 279 279 279 281 280 281 282 283 283 282 282 283 284 286 288 287 287 287 288 289 290 291 290 289 288 287 290 292 292 291 289 289 290 291 291 291 292 292 293 292 292 293 296 293 293 291 289 288 287 287
282 283 281 280 279 278 279 280 281 281 281 281 281 281 281 282 285 286 286 287 286 286 287 287 289 291 291 291 289 288 287 290 291 292 293 293 292 292 291 292 292 293 293 292 292 292 291 290 289 288 287 287 286 287
282 281 281 279 276 277 279 279 279 279 280 279 279 280 280 280 280 284 285 284 284 284 287 288 288 289 293 294 294 293 294 292 292 292 293 292 292 293 292 293 294 293 292 292 292 291 290 289 288 288 286 286 286 286
281 282 282 281 275 274 277 278 276 275 275 276 277 280 281 281 281 284 284 285 286 286 286 288 290 292 293 294 293 293 293 292 293 294 295 294 294 293 293 293 294 293 292 292 291 291 289 289 288 287 286 286 286 285

GFSWCAN_sfc_thetae_129.txt.gz
Theta_e
302 302 301 301 302 302 303 303 304 304 304 305 305 306 306 306 307 304 300 303 298 293 293 295 296 293 293 295 289 292 292 292 290 287 290 285 282 284 283 284 283 282 280 280 280 279 282 293 291 288 292 291 293 293
302 302 301 301 301 302 302 303 303 304 304 305 305 305 306 306 306 306 297 302 304 296 294 300 300 301 301 300 295 294 293 292 293 289 287 287 284 282 282 279 284 283 285 283 286 286 292 294 291 294 294 294 293 294
301 301 301 301 301 301 301 302 303 303 303 304 304 305 305 305 306 305 300 301 299 295 294 295 294 300 304 305 306 291 294 297 295 295 291 290 287 285 282 281 282 285 287 286 287 290 290 293 293 292 294 294 295 295
301 301 301 300 300 300 301 302 303 303 303 304 304 304 305 305 305 305 299 300 298 294 287 287 299 298 303 305 304 304 297 296 295 295 292 290 288 289 285 287 285 286 289 286 285 289 291 293 294 295 295 295 295 295
300 300 300 300 300 300 301 302 302 303 303 303 304 304 304 305 305 302 299 301 302 293 288 289 296 300 302 303 303 303 299 295 293 291 290 289 288 287 284 286 284 287 286 288 286 293 293 294 296 295 295 296 296 296
300 300 300 299 300 300 301 301 301 302 303 303 303 303 304 304 304 296 292 298 302 300 292 286 294 292 299 303 303 300 300 297 294 291 289 289 291 289 283 283 289 290 291 294 293 295 296 294 296 296 297 296 297 296
299 299 299 299 300 300 300 301 301 302 302 302 303 303 304 304 298 294 292 296 303 302 292 286 286 292 297 302 301 300 300 298 294 291 289 289 289 289 284 283 289 291 294 293 293 295 292 294 296 295 296 297 301 297
298 298 299 299 299 300 300 300 301 301 302 302 303 303 303 303 301 295 298 301 304 297 295 285 286 290 298 295 295 300 296 296 295 291 288 287 288 286 282 288 290 291 292 293 293 295 295 296 295 296 295 295 296 296
298 298 299 299 299 300 300 300 301 301 301 302 302 302 297 294 291 295 303 303 301 296 286 285 283 283 295 293 294 296 297 290 296 289 287 289 285 283 286 289 292 292 292 293 293 293 291 294 294 295 295 295 296 297
298 298 298 299 299 299 300 300 300 300 301 301 296 292 286 294 300 300 296 292 292 285 288 285 287 286 291 289 288 289 292 286 285 289 291 287 289 292 290 290 292 295 294 294 291 288 289 290 293 294 295 297 298 298
297 298 298 298 298 298 299 299 300 300 299 293 291 288 291 298 292 290 284 283 284 280 284 287 290 287 294 287 286 290 286 287 283 287 286 282 287 293 295 291 293 292 292 294 297 296 296 297 295 293 293 295 297 296
297 298 298 298 298 298 298 299 299 295 293 295 294 295 293 287 284 281 281 282 279 280 285 286 287 292 292 294 287 288 285 286 282 287 283 280 286 292 295 296 297 297 297 294 295 296 294 296 296 296 296 295 295 296
298 298 298 298 298 298 298 299 299 299 298 296 292 286 284 283 278 278 277 278 277 285 286 289 288 291 291 290 287 285 283 283 287 281 280 282 287 291 295 297 298 299 299 298 295 294 294 294 295 294 293 293 293 293
297 298 298 298 298 298 298 298 298 297 294 285 283 278 278 278 277 280 279 280 284 289 288 291 289 290 290 288 287 282 287 285 278 277 278 283 287 292 294 296 297 297 298 298 297 295 292 291 291 292 293 292 292 292
297 298 298 297 298 298 298 298 298 296 290 284 283 276 277 280 284 284 284 285 288 291 291 290 289 289 287 285 285 285 282 280 280 280 283 286 290 292 291 290 292 293 294 296 297 291 291 290 291 290 290 291 291 291
297 296 294 296 297 297 297 297 296 293 286 284 283 280 281 280 282 286 287 288 292 293 293 291 285 284 284 284 283 282 281 279 281 284 287 288 289 290 289 289 290 291 292 291 294 294 291 291 291 292 290 290 290 291
295 292 297 298 300 299 297 293 291 285 284 283 280 284 282 282 283 287 288 289 293 292 286 286 283 282 285 283 281 281 279 281 284 286 287 288 289 290 291 290 290 290 290 290 289 290 291 291 290 289 289 288 289 290
293 293 298 301 299 297 292 289 285 284 275 282 281 280 282 284 284 286 290 291 291 289 288 285 289 284 282 280 278 282 284 286 287 288 290 289 290 291 291 289 289 289 288 288 288 288 288 289 289 290 289 289 289 289
295 297 301 299 296 290 285 283 284 279 280 281 281 282 284 285 287 287 287 289 289 290 288 285 282 282 283 285 285 285 286 286 286 288 290 290 289 289 290 289 288 287 287 287 287 288 289 290 290 289 290 291 289 289
301 300 300 299 294 283 280 283 285 277 274 280 281 282 283 285 286 285 285 286 285 284 279 280 280 284 286 287 288 287 289 288 287 286 289 291 288 288 288 288 287 287 287 287 289 291 289 288 289 290 291 291 290 289
295 297 297 292 287 282 285 283 282 284 280 280 283 284 282 285 286 287 287 284 278 279 281 282 282 285 288 290 290 291 290 288 287 288 289 290 289 287 287 287 287 287 287 287 288 290 289 288 289 292 291 290 290 290
291 295 292 292 285 284 280 281 280 285 284 282 282 282 281 279 282 284 284 280 279 282 282 283 285 285 285 286 287 289 290 290 289 288 292 292 290 288 287 287 288 287 287 287 289 288 288 289 290 290 290 290 291 290
293 291 286 285 283 278 280 287 281 280 280 282 283 274 272 276 281 285 283 282 282 284 285 285 286 287 286 287 287 288 290 290 289 288 288 289 290 290 289 289 290 288 287 287 289 290 289 292 292 290 290 290 290 290
291 286 283 280 273 279 283 280 283 281 283 281 280 272 273 274 284 284 280 280 282 284 284 285 286 284 285 286 286 287 290 290 289 288 288 288 288 289 289 289 290 290 290 290 290 291 291 290 292 290 290 290 289 288
282 280 279 276 276 276 279 279 279 280 278 280 278 274 277 283 281 278 278 279 281 283 286 285 285 286 285 285 286 288 291 291 290 289 289 289 287 287 288 289 289 290 292 291 290 290 290 290 290 290 290 289 289 288
276 279 275 273 275 275 276 277 278 278 279 278 278 277 280 281 278 275 278 280 281 283 284 285 286 285 285 288 287 288 290 292 291 289 290 289 289 289 288 288 288 288 292 294 292 291 290 290 290 290 289 290 291 288
273 277 282 283 280 279 278 279 281 279 278 273 274 279 279 276 274 279 282 284 285 286 287 288 288 288 288 287 289 291 293 292 292 292 291 290 290 291 290 290 289 291 292 294 294 293 291 290 290 290 290 290 289 288
280 282 278 281 280 279 276 279 279 277 278 279 280 278 277 277 277 283 286 289 289 290 290 291 291 291 290 289 291 291 291 291 290 289 289 288 289 290 291 292 292 293 293 294 294 293 293 292 291 290 290 289 288 289
280 282 282 279 280 279 277 279 278 280 281 280 279 279 279 282 284 286 288 289 290 290 289 289 290 292 291 291 290 290 291 291 288 286 288 287 286 288 290 291 291 292 292 293 295 294 293 293 292 291 291 289 289 289
279 283 280 280 275 275 279 280 279 281 280 282 281 281 281 282 284 284 288 288 288 287 289 289 290 290 289 288 288 288 290 292 293 292 289 289 290 291 290 290 291 291 292 293 293 293 296 293 293 290 289 288 287 287
281 282 281 280 279 278 279 279 279 280 280 280 281 280 281 282 283 285 287 289 288 287 286 286 287 288 289 289 289 288 287 289 290 291 292 292 292 291 291 292 292 292 292 292 292 292 291 291 290 288 287 287 287 287
282 281 280 279 279 277 279 279 279 278 279 279 279 279 280 280 280 283 284 284 284 284 286 287 286 287 290 292 292 291 293 293 292 292 292 292 292 292 292 293 293 292 292 292 292 291 290 289 288 287 287 286 286 285
281 282 281 281 279 277 278 277 275 274 274 274 276 278 279 280 280 283 284 284 286 285 285 286 287 289 290 291 292 292 293 292 292 294 295 294 294 294 293 293 293 292 292 291 291 290 289 288 287 287 286 286 285 285

GFSWCAN_sfc_thetae_132.txt.gz
Theta_e
302 302 302 302 303 301 301 302 303 303 303 304 305 305 305 305 306 303 300 302 296 287 291 294 295 293 292 290 289 294 293 293 290 285 286 287 283 285 283 283 282 282 280 279 280 279 281 292 290 288 292 290 292 291
301 302 302 301 302 302 302 302 302 303 303 304 304 304 305 305 305 305 297 301 302 294 290 299 298 299 298 297 293 295 294 291 290 288 289 288 283 282 284 279 282 283 285 283 285 285 292 294 291 293 293 293 292 292
300 301 301 301 302 302 301 301 301 302 302 303 303 303 304 305 305 304 299 299 299 293 292 292 292 298 301 302 304 293 294 297 294 296 293 290 286 285 283 282 283 284 286 285 286 290 290 292 293 292 293 293 293 294
300 300 301 301 301 301 301 301 301 302 302 303 303 303 303 304 305 304 298 299 298 291 285 289 297 294 300 301 302 302 299 300 296 297 291 290 286 287 285 288 286 286 288 284 284 286 290 291 294 295 294 293 293 294
300 300 300 300 301 301 300 300 301 302 302 302 303 303 303 304 304 302 298 299 301 292 286 288 294 297 299 299 300 302 300 297 295 291 291 288 288 287 284 286 284 286 286 288 286 290 292 293 297 295 295 294 295 295
299 300 300 300 300 300 300 300 301 301 302 301 302 303 303 303 303 297 290 297 301 299 290 285 294 291 296 299 299 299 299 298 296 293 292 291 291 290 282 282 287 288 290 294 291 294 294 293 294 296 297 296 296 295
299 299 299 300 300 299 299 300 300 301 301 301 302 303 303 303 298 293 289 295 302 300 290 285 286 291 293 297 298 298 299 298 296 293 290 288 289 291 283 285 289 290 292 292 291 294 292 293 295 294 295 296 300 295
299 299 299 299 299 299 299 300 300 300 301 301 302 302 302 302 300 294 297 301 303 296 293 285 284 287 294 291 293 299 296 296 295 294 289 290 288 286 281 289 291 290 292 291 292 293 293 295 295 294 293 294 295 295
299 298 298 298 299 299 299 300 300 300 300 301 301 301 296 293 289 292 301 302 300 293 285 284 280 277 293 293 291 295 296 288 294 290 290 289 288 284 286 288 291 290 291 293 292 292 290 292 294 294 293 293 294 296
298 298 298 298 298 299 299 299 300 299 299 299 296 291 286 290 300 300 294 290 290 286 287 284 288 284 291 290 289 290 288 286 284 288 292 287 287 291 290 290 290 292 294 293 291 288 288 289 292 293 294 295 296 296
298 298 298 298 298 298 298 299 299 299 298 294 290 288 290 298 294 290 284 284 284 280 283 286 288 286 293 287 287 291 286 285 283 288 286 285 285 292 293 291 291 291 292 292 292 294 295 295 294 293 293 294 295 295
298 298 297 297 298 298 298 298 298 294 292 293 294 295 294 288 285 280 280 281 278 276 282 285 287 288 292 294 289 288 286 286 282 289 284 280 286 292 295 295 297 297 296 295 293 293 294 294 294 294 295 295 295 296
297 297 297 297 298 298 298 298 298 297 297 294 290 286 283 283 278 277 273 279 279 284 285 289 287 289 291 291 288 286 282 282 286 283 281 283 286 291 294 297 297 299 299 298 298 296 293 293 294 293 293 293 294 294
297 297 297 297 297 298 298 298 298 296 292 286 282 279 278 277 273 275 278 282 285 287 287 289 289 288 288 286 286 283 285 284 281 279 279 285 287 290 294 296 297 297 298 298 298 299 297 292 292 292 294 294 292 293
297 297 297 297 298 298 298 298 298 293 290 283 283 276 278 278 279 284 284 285 286 290 290 289 289 290 286 285 285 284 282 280 281 278 281 287 289 288 289 289 289 292 293 293 295 296 296 294 293 291 292 292 293 293
297 297 295 298 298 297 297 296 294 292 288 283 283 280 280 280 277 284 286 287 291 291 293 291 285 284 284 284 282 280 281 278 280 282 286 288 288 289 288 288 289 291 292 292 294 295 294 292 292 293 291 290 291 292
297 292 295 296 296 297 297 293 291 286 283 282 281 284 283 281 281 284 288 289 293 290 285 285 282 281 285 281 279 280 279 282 286 285 287 288 288 289 288 288 288 289 289 289 290 292 291 292 290 289 289 288 289 290
291 293 296 296 297 295 293 290 285 282 280 282 280 281 282 283 282 284 288 291 291 288 287 285 288 282 279 278 280 282 283 285 286 288 288 289 290 289 289 289 289 288 288 288 288 288 288 288 290 291 290 288 288 288
293 295 297 298 296 288 284 284 285 279 280 281 283 281 282 284 284 288 290 290 291 291 289 284 283 280 282 284 287 289 286 285 285 287 288 290 289 287 288 288 288 286 286 286 286 287 287 288 290 288 288 289 288 288
299 299 298 297 292 283 283 282 285 278 275 281 282 281 282 283 286 287 286 287 287 286 282 280 278 284 287 287 289 289 289 288 286 286 287 290 290 287 286 287 286 286 286 287 288 289 287 287 288 289 290 290 289 288
296 296 296 290 284 280 280 283 281 279 280 279 282 282 282 286 286 286 286 284 279 279 281 282 284 284 288 290 290 290 289 287 287 287 286 286 289 287 286 286 287 288 288 287 287 289 288 286 287 290 290 288 289 289
293 296 290 291 285 280 278 280 280 282 283 280 282 281 281 279 282 284 287 283 279 283 284 283 283 285 285 285 287 287 288 289 289 288 291 290 288 288 287 287 288 288 287 288 288 287 286 287 289 289 289 289 291 290
293 290 287 285 276 275 281 287 281 282 278 281 282 273 271 276 281 283 280 281 282 284 285 285 285 286 286 286 287 287 288 289 287 288 288 287 288 289 288 287 289 289 288 287 289 288 288 291 291 289 290 289 289 289
292 286 283 279 278 278 282 279 281 276 279 275 278 271 273 275 284 282 279 279 282 283 283 284 285 284 283 284 284 285 286 289 289 288 288 289 287 288 289 288 289 290 290 289 289 289 289 289 291 289 289 289 288 287
282 279 281 276 278 279 278 278 279 279 276 279 274 272 275 281 279 276 278 279 280 281 283 283 283 283 283 283 284 285 288 289 288 288 290 289 288 288 288 289 289 290 291 290 289 289 289 289 289 289 289 288 287 287
276 274 273 274 276 274 278 275 276 278 279 278 279 277 282 281 277 274 278 280 280 281 283 283 283 282 282 285 285 285 286 289 290 288 289 290 290 289 288 288 288 289 291 292 291 289 288 289 289 288 288 289 290 287
270 271 281 282 279 279 277 278 279 279 278 273 274 279 279 269 272 278 281 282 283 285 287 287 285 285 285 285 286 288 289 290 291 290 291 291 290 290 290 289 289 291 292 293 292 291 289 289 289 289 288 289 288 288
279 281 279 280 280 279 275 277 277 276 276 278 279 277 276 276 276 281 283 286 287 288 289 289 290 289 289 288 288 288 288 289 289 288 288 289 289 290 290 291 291 293 293 294 293 292 291 290 290 289 289 288 288 288
280 282 281 279 280 278 276 278 277 279 280 279 278 278 279 282 283 284 286 288 288 287 286 286 288 289 288 288 288 288 289 289 288 287 288 287 287 289 289 290 290 292 293 293 295 294 293 292 291 290 290 289 288 288
279 283 279 278 273 273 278 280 279 280 280 281 281 281 281 281 282 281 285 286 286 287 288 288 289 288 288 287 286 286 288 291 292 291 289 288 288 290 289 289 289 290 292 293 292 292 296 293 293 289 288 287 287 286
281 282 280 280 277 277 278 278 279 279 279 279 280 280 282 282 283 284 286 288 289 288 288 288 288 289 289 289 287 286 286 288 290 292 292 291 290 289 289 289 290 290 292 292 292 291 291 290 289 288 288 287 287 287
281 280 279 278 276 276 278 278 278 278 278 278 277 278 279 280 280 283 284 284 284 285 287 288 287 288 290 291 292 292 293 291 290 292 291 290 290 290 291 290 291 291 291 292 291 291 290 289 289 288 287 286 287 286
281 281 281 280 279 275 276 277 275 273 273 273 275 277 278 279 279 282 283 283 284 284 285 286 287 287 288 289 291 292 293 292 292 294 294 294 294 292 292 291 291 291 291 291 291 291 289 289 288 288 287 287 287 286